Hoquiam, WA
on Thursday, November 8, 2012

Thursday
Previous Day Next Day
Daily Summary
 ActualAverageRecord
Temperature
Mean Temperature °F 47°F  
Max Temperature 53°F 53°F 64°F (1976)
Min Temperature 35°F 42°F 29°F (1977)
Degree Days
Heating Degree Days 20 18  
Month to date heating degree days 135  
Cooling Degree Days 0 0  
Month to date cooling degree days 0  
Year to date cooling degree days 23  
Moisture
Dew Point 39°F   
Average Humidity 87    
Maximum Humidity 97    
Minimum Humidity 57    
Precipitation
Precipitation 0.01 in 0.36 in 1.82 in (1967)
Month to date precipitation 2.80  
Year to date precipitation 49.22  
Wind
Wind Speed 6 mph   
Max Wind Speed 14 mph   
Max Gust Speed 22 mph   
Visibility 10 miles   
Events     

Key: T is trace of precipitation, MM is missing value
Source: NWS Daily Summary
Time(PST)TemperatureDew PointHumidity Pressure Visibility Wind DirectionWind SpeedGust SpeedPrecipitationEvents Conditions
12:53 AM 44.1°F 42.1°F 93% 29.91 in 10.0 miles ENE 5.8 mph - N/A   Overcast
1:44 AM 44.6°F 42.8°F 93% 29.89 in 10.0 miles East 4.6 mph - 0.00 in   Overcast
1:53 AM 44.1°F 42.1°F 93% 29.90 in 10.0 miles ENE 4.6 mph - 0.00 in   Overcast
2:43 AM 42.8°F 41.0°F 93% 29.87 in 10.0 miles ENE 6.9 mph - N/A   Mostly Cloudy
2:53 AM 43.0°F 41.0°F 93% 29.88 in 10.0 miles ENE 4.6 mph - N/A   Mostly Cloudy
3:53 AM 42.1°F 41.0°F 96% 29.85 in 10.0 miles NE 5.8 mph - 0.01 in   Mostly Cloudy
4:53 AM 41.0°F 39.9°F 96% 29.85 in 10.0 miles ENE 4.6 mph - N/A   Scattered Clouds
5:53 AM 42.1°F 39.9°F 92% 29.84 in 10.0 miles NE 5.8 mph - N/A   Overcast
6:53 AM 42.1°F 39.0°F 89% 29.84 in 10.0 miles NE 6.9 mph - N/A   Clear
7:53 AM 42.1°F 39.9°F 92% 29.83 in 10.0 miles ENE 6.9 mph - N/A   Clear
8:53 AM 41.0°F 39.9°F 96% 29.84 in 7.0 miles East 8.1 mph - N/A   Clear
9:19 AM 41.0°F 39.2°F 93% 29.82 in 7.0 miles East 10.4 mph - N/A   Scattered Clouds
9:53 AM 42.1°F 39.9°F 92% 29.83 in 7.0 miles ENE 9.2 mph - N/A   Partly Cloudy
10:53 AM 44.1°F 42.1°F 93% 29.83 in 9.0 miles East 8.1 mph - N/A   Clear
11:53 AM 48.0°F 43.0°F 83% 29.82 in 10.0 miles East 8.1 mph - N/A   Clear
12:53 PM 53.1°F 39.0°F 59% 29.82 in 10.0 miles NNE 5.8 mph - N/A   Clear
1:53 PM 52.0°F 39.0°F 61% 29.81 in 10.0 miles NNW 6.9 mph - N/A   Partly Cloudy
2:53 PM 53.1°F 37.9°F 57% 29.81 in 10.0 miles North 8.1 mph - N/A   Clear
3:53 PM 48.9°F 37.9°F 66% 29.84 in 10.0 miles NNW 13.8 mph 21.9 mph N/A   Overcast
4:53 PM 46.9°F 37.0°F 68% 29.83 in 10.0 miles WNW 8.1 mph - 0.00 in   Overcast
5:53 PM 43.0°F 39.0°F 86% 29.84 in 10.0 miles North 4.6 mph - N/A   Clear
6:53 PM 39.9°F 37.9°F 93% 29.84 in 10.0 miles East 6.9 mph - N/A   Mostly Cloudy
7:53 PM 41.0°F 37.9°F 89% 29.84 in 10.0 miles Calm Calm - N/A   Scattered Clouds
8:53 PM 39.9°F 37.9°F 93% 29.85 in 10.0 miles NE 5.8 mph - N/A   Clear
9:53 PM 37.9°F 36.0°F 93% 29.85 in 10.0 miles Calm Calm - N/A   Clear
10:53 PM 36.0°F 35.1°F 97% 29.86 in 10.0 miles Calm Calm - N/A   Clear
11:53 PM 35.1°F 34.0°F 96% 29.86 in 8.0 miles ENE 4.6 mph - N/A   Clear
Moon Phase
Nov. 08 Nov. 13 Nov. 20 Nov. 28 Dec. 06
Sunrise:07:09 AM (PST) Moon Rise:12:49 AM (PST)11/8
Sunset:04:48 PM (PST) Moon Set:01:52 PM (PST)11/8

Copyright © 2014 The Weather Underground, Inc.